EW3205 Weather Reports


time (UTC)temp
F
wind
direction
speed
knots
gust
knots
rain 1hr
in
rain 24hr
in
rain mn
in
humidity
%
barometer
mb
20260504204531 47 256 8.7 17.4 0.00 0.06 0.06 82 1008.9
20260504203026 47 283 13.0 21.7 0.00 0.06 0.06 82 1008.8
20260504201523 48 275 7.0 20.9 0.00 0.06 0.06 81 1008.8
20260504200022 48 223 8.7 17.4 0.00 0.06 0.06 80 1008.8
20260504194520 48 278 8.7 19.1 0.00 0.06 0.06 79 1009.0
20260504193019 48 271 7.8 19.1 0.00 0.06 0.06 78 1008.9
20260504191518 48 250 8.7 18.2 0.00 0.06 0.06 77 1008.9
20260504190019 48 244 7.8 20.9 0.00 0.06 0.06 76 1008.9
20260504184522 49 240 11.3 18.2 0.00 0.06 0.06 75 1008.9
20260504183014 49 236 8.7 17.4 0.00 0.06 0.06 75 1008.8
20260504181515 49 222 7.0 18.2 0.00 0.06 0.06 73 1008.9
20260504180012 50 235 10.4 19.1 0.00 0.06 0.06 73 1008.7
20260504174509 50 233 11.3 17.4 0.00 0.06 0.06 73 1008.7
20260504173010 51 236 9.6 18.2 0.00 0.06 0.06 74 1008.9
20260504171507 51 250 7.8 15.6 0.00 0.06 0.06 73 1008.9
20260504081538 50 282 5.2 15.6 0.00 0.06 0.06 82 1006.5
20260504050011 47 185 1.7 3.5 0.00 0.06 0.06 92 1005.3
20260504044501 46 223 1.7 4.3 0.00 0.06 0.06 93 1005.5
20260504043101 46 214 0.0 2.6 0.00 0.06 0.06 94 1005.3
20260504041557 46 188 0.0 1.7 0.00 0.06 0.06 93 1005.4
20260504040056 46 209 0.9 1.7 0.00 0.06 0.06 93 1005.5
20260504034553 46 226 0.0 2.6 0.00 0.06 0.06 93 1005.5
20260504033050 46 227 0.0 3.5 0.01 0.06 0.06 93 1005.6
20260504031552 46 253 0.0 1.7 0.01 0.06 0.06 93 1005.8
20260504030048 47 165 0.9 2.6 0.01 0.06 0.06 93 1005.5
20260504024549 47 192 0.0 0.9 0.02 0.06 0.06 93 1005.8
20260504023045 47 188 0.9 1.7 0.01 0.06 0.06 93 1005.8
20260504021543 47 208 1.7 2.6 0.01 0.06 0.06 92 1006.0
20260504020117 48 221 1.7 4.3 0.02 0.06 0.06 93 1006.2
20260504014554 48 262 0.9 5.2 0.01 0.05 0.05 93 1006.3
20260504013044 50 224 0.9 2.6 0.02 0.05 0.05 93 1006.2
20260504011535 50 206 0.9 3.5 0.03 0.05 0.05 93 1006.3
20260504010039 50 220 0.9 3.5 0.02 0.04 0.04 93 1006.3
20260504004536 50 208 0.9 2.6 0.03 0.04 0.04 93 1006.4
20260504003031 50 213 0.9 3.5 0.02 0.02 0.02 93 1006.5
20260504001534 51 233 0.9 3.5 0.02 0.02 0.02 93 1006.5
20260504000028 51 196 0.9 3.5 0.02 0.02 0.02 93 1006.6
20260503234527 51 211 1.7 3.5 0.01 0.01 0.01 93 1006.8
20260503233026 51 189 3.5 6.1 0.01 0.01 0.01 93 1006.9
20260503231523 51 211 3.5 7.8 0.00 0.00 0.00 92 1007.1
20260503230022 51 163 6.1 8.7 0.00 0.00 0.00 92 1007.2
20260503224520 51 163 2.6 5.2 0.00 0.00 0.00 91 1007.3
20260503223019 51 210 1.7 5.2 0.00 0.00 0.00 91 1007.3
20260503221518 51 175 0.9 4.3 0.00 0.00 0.00 91 1007.2
20260503220016 51 167 1.7 5.2 0.00 0.00 0.00 91 1007.2
20260503214518 51 204 2.6 6.1 0.00 0.00 0.00 91 1007.3
20260503213014 51 168 2.6 5.2 0.00 0.00 0.00 91 1007.5
20260503211513 51 174 1.7 5.2 0.00 0.00 0.00 91 1007.7
20260503210011 51 171 2.6 7.0 0.00 0.00 0.00 91 1007.8